GW4352 Weather Reports


time (UTC)temp
C
wind
direction
speed
KPH
gust
KPH
rain 1hr
cm
rain 24hr
cm
rain mn
cm
humidity
%
barometer
mb
20260505192021 14 349 3.2 11.3 0.00 0.00 0.00 69 1009.1
20260505191048 14 5 3.2 9.7 0.00 0.00 0.00 68 1008.9
20260505190033 14 340 4.8 11.3 0.00 0.00 0.00 68 1008.8
20260505185027 14 10 3.2 11.3 0.00 0.00 0.00 68 1009.0
20260505184017 14 16 1.6 6.4 0.00 0.00 0.00 68 1008.9
20260505183041 14 342 3.2 11.3 0.00 0.00 0.00 68 1008.7
20260505182018 14 358 3.2 9.7 0.00 0.00 0.00 68 1009.0
20260505181032 14 346 3.2 6.4 0.00 0.00 0.00 69 1008.9
20260505180020 15 342 3.2 9.7 0.00 0.00 0.00 68 1008.9
20260505175026 15 340 3.2 12.9 0.00 0.00 0.00 68 1008.9
20260505174033 15 334 1.6 6.4 0.00 0.00 0.00 68 1009.0
20260505173027 15 358 3.2 11.3 0.00 0.00 0.00 67 1008.9
20260505172017 15 357 4.8 12.9 0.00 0.00 0.00 67 1008.9
20260505171042 15 343 4.8 14.5 0.00 0.00 0.00 66 1009.1
20260505170018 15 350 6.4 14.5 0.00 0.00 0.00 63 1009.0
20260505165025 15 337 4.8 11.3 0.00 0.00 0.00 62 1009.2
20260505164019 15 343 3.2 9.7 0.00 0.00 0.00 62 1009.3
20260505163026 15 343 3.2 9.7 0.00 0.00 0.00 62 1009.1
20260505162035 15 330 4.8 14.5 0.00 0.00 0.00 61 1009.1
20260505161027 15 344 3.2 9.7 0.00 0.00 0.00 62 1009.2
20260505153025 15 23 3.2 9.7 0.00 0.00 0.00 62 1009.1
20260505152018 15 21 4.8 14.5 0.00 0.00 0.00 61 1009.2
20260505151027 15 20 4.8 11.3 0.00 0.00 0.00 62 1009.4
20260505125026 15 38 6.4 12.9 0.00 0.00 0.00 62 1009.9
20260505124017 15 61 11.3 16.1 0.00 0.00 0.00 62 1009.6
20260505123046 15 30 8.0 14.5 0.00 0.00 0.00 65 1009.9
20260505122034 15 35 4.8 12.9 0.00 0.00 0.00 66 1009.9
20260505121026 14 50 3.2 11.3 0.00 0.00 0.00 68 1009.8
20260505120017 15 48 6.4 14.5 0.00 0.00 0.00 67 1009.7
20260505115041 16 42 8.0 16.1 0.00 0.00 0.00 65 1009.7
20260505114019 15 45 4.8 12.9 0.00 0.00 0.00 69 1009.8
20260505113044 15 32 9.7 22.5 0.00 0.00 0.00 69 1009.9
20260505112041 15 350 6.4 12.9 0.00 0.00 0.00 70 1009.9
20260505111026 14 5 4.8 9.7 0.00 0.00 0.00 71 1010.0
20260505102018 12 24 6.4 16.1 0.00 0.00 0.00 78 1010.3
20260505101025 12 32 6.4 12.9 0.00 0.00 0.00 78 1010.4
20260505100018 12 42 6.4 17.7 0.00 0.00 0.00 79 1010.4
20260505095027 12 42 6.4 14.5 0.00 0.00 0.00 79 1010.5
20260505094032 12 34 6.4 16.1 0.00 0.00 0.00 78 1010.5
20260505093027 12 4 4.8 14.5 0.00 0.00 0.00 77 1010.6
20260505092019 12 31 6.4 12.9 0.00 0.00 0.00 77 1010.4
20260505091041 12 26 4.8 12.9 0.00 0.00 0.00 78 1010.4
20260505090018 12 37 4.8 12.9 0.00 0.00 0.00 78 1010.5
20260505085025 12 32 6.4 12.9 0.00 0.00 0.00 79 1010.6
20260505084101 12 40 9.7 20.9 0.00 0.00 0.00 80 1010.5
20260505083026 12 1 6.4 16.1 0.00 0.00 0.00 83 1010.8
20260505082033 12 360 6.4 14.5 0.00 0.00 0.00 85 1010.7
20260505081041 12 10 6.4 16.1 0.00 0.00 0.00 85 1010.6
20260505080019 12 340 3.2 9.7 0.00 0.00 0.00 86 1010.8
20260505075027 12 10 4.8 17.7 0.00 0.00 0.00 86 1010.6
20260505074018 12 36 6.4 14.5 0.00 0.00 0.00 86 1010.6
20260505073048 12 33 4.8 11.3 0.00 0.00 0.00 86 1010.5
20260505072019 12 13 3.2 11.3 0.00 0.00 0.00 87 1010.3
20260505071026 11 34 6.4 12.9 0.00 0.00 0.00 87 1010.6
20260505070053 11 41 4.8 9.7 0.00 0.00 0.00 88 1010.8
20260505065028 11 38 3.2 9.7 0.00 0.00 0.00 89 1010.8
20260505064017 11 36 1.6 6.4 0.00 0.00 0.00 91 1010.8
20260505063041 11 37 3.2 4.8 0.00 0.00 0.00 92 1010.8
20260505062044 11 42 3.2 9.7 0.00 0.00 0.00 92 1010.8
20260505061025 11 46 3.2 6.4 0.00 0.00 0.00 93 1010.7
20260505060020 11 37 3.2 6.4 0.00 0.00 0.00 93 1010.6
20260505055028 11 15 3.2 9.7 0.00 0.00 0.00 93 1010.6
20260505054033 11 26 1.6 6.4 0.00 0.00 0.00 93 1010.7
20260505053028 11 4 3.2 6.4 0.00 0.00 0.00 93 1010.7
20260505052102 11 36 3.2 9.7 0.00 0.00 0.00 93 1010.6
20260505051041 11 18 4.8 11.3 0.00 0.00 0.00 92 1010.5
20260505041047 11 355 0.0 1.6 0.00 0.00 0.00 92 1010.8
20260505040016 11 355 1.6 3.2 0.00 0.00 0.00 91 1010.7
20260505035100 11 355 0.0 1.6 0.00 0.00 0.00 91 1010.7
20260505034017 11 354 0.0 1.6 0.00 0.00 0.00 91 1010.8
20260505033024 11 352 1.6 3.2 0.00 0.00 0.00 91 1010.8
20260505032041 11 23 0.0 3.2 0.00 0.00 0.00 91 1010.9
20260505031027 11 48 1.6 4.8 0.00 0.00 0.00 91 1010.8
20260505030059 11 346 0.0 3.2 0.00 0.00 0.00 90 1011.0
20260505025033 11 343 1.6 3.2 0.00 0.00 0.00 90 1011.0
20260505024017 11 346 1.6 3.2 0.00 0.00 0.00 90 1011.1
20260505023038 11 352 1.6 3.2 0.00 0.00 0.00 90 1010.9
20260505022018 11 345 1.6 3.2 0.00 0.00 0.00 90 1010.9
20260505021031 11 347 1.6 4.8 0.00 0.00 0.00 90 1011.0
20260505020035 11 0.0 0.0 0.00 0.00 0.00 90 1010.9
20260505015046 11 34 0.0 1.6 0.00 0.00 0.00 89 1011.0
20260505014017 11 33 1.6 3.2 0.00 0.00 0.00 89 1011.2
20260505013025 11 35 1.6 4.8 0.00 0.00 0.00 89 1011.2
20260505012018 11 0.0 0.0 0.00 0.00 0.00 89 1011.6
20260505011047 11 16 1.6 3.2 0.00 0.00 0.00 88 1011.6
20260505010019 11 36 3.2 6.4 0.00 0.00 0.00 88 1011.4
20260505005027 11 46 3.2 6.4 0.00 0.00 0.00 88 1011.6
20260505004034 12 74 0.0 3.2 0.00 0.00 0.00 87 1011.9
20260505003027 12 38 3.2 6.4 0.00 0.00 0.00 86 1011.8
20260505002016 12 49 3.2 6.4 0.00 0.00 0.00 86 1011.7
20260505001103 12 33 1.6 4.8 0.00 0.00 0.00 86 1011.9
20260505000018 12 49 3.2 6.4 0.00 0.00 0.00 86 1012.0
20260504235025 12 46 4.8 9.7 0.00 0.00 0.00 86 1012.0
20260504234040 12 41 6.4 16.1 0.00 0.00 0.00 85 1011.8
20260504233026 12 41 4.8 12.9 0.00 0.00 0.00 86 1012.0
20260504232056 12 34 4.8 12.9 0.00 0.00 0.00 85 1011.8
20260504231027 13 46 4.8 17.7 0.00 0.00 0.00 85 1011.9
20260504230017 13 46 4.8 11.3 0.00 0.00 0.00 85 1012.0
20260504225041 13 42 3.2 11.3 0.00 0.00 0.00 86 1012.1
20260504224018 13 47 1.6 9.7 0.00 0.00 0.00 86 1012.2
20260504223026 13 41 1.6 4.8 0.00 0.00 0.00 87 1012.2
20260504222018 13 25 0.0 4.8 0.00 0.00 0.00 87 1012.2
20260504221047 13 352 3.2 9.7 0.00 0.00 0.00 87 1012.1
20260504220033 13 350 3.2 6.4 0.00 0.00 0.00 87 1012.4
20260504215029 13 23 1.6 4.8 0.00 0.00 0.00 88 1012.2
20260504214022 13 346 1.6 3.2 0.00 0.00 0.00 88 1012.3
20260504213043 13 0.0 0.0 0.00 0.00 0.00 89 1012.4
20260504212037 12 0.0 0.0 0.00 0.00 0.00 89 1012.3
20260504211024 12 0.0 0.0 0.00 0.00 0.00 89 1012.4
20260504210018 12 0.0 0.0 0.00 0.00 0.00 89 1012.4
20260504205026 12 0.0 0.0 0.00 0.00 0.00 88 1012.4
20260504204115 12 0.0 0.0 0.00 0.00 0.00 88 1012.3
20260504203026 12 0.0 0.0 0.00 0.00 0.00 88 1012.3
20260504202018 12 0.0 0.0 0.00 0.00 0.00 88 1012.3
20260504201041 12 0.0 0.0 0.00 0.00 0.00 87 1012.2
20260504200019 13 0.0 0.0 0.00 0.00 0.00 86 1012.3
20260504195025 13 0.0 0.0 0.00 0.00 0.00 85 1012.1
20260504194019 13 35 1.6 3.2 0.00 0.00 0.00 84 1012.0
20260504193040 13 20 0.0 3.2 0.00 0.00 0.00 83 1011.8